Location: C�mpuri de-Sus
(45.9500°N, 22.5500°E)
Time: 06:57:54
(UTC+00:00)

Cosmos 2278 Rocket - Pass Details

Date: 03 June 2022
Orbit: 840 x 846 km, 71.0° (Epoch: 03 July)

Event Time Altitude Azimuth Distance (km) Brightness Sun altitude
Rises 19:58:40 0° 339° (NNW) 3,418 7.0 -13.7°
Reaches altitude 10° 20:01:33 10° 352° (N) 2,478 5.7 -14.0°
Maximum altitude 20:06:17 26° 49° (NE) 1,606 3.7 -14.5°
Enters shadow 20:10:40 11° 103° (ESE) 2,374 4.1 -14.9°
